Regional Weather Roundup
Issued by NWS

Home | Current Version | Previous Version | Text Only | Print | Product List | Glossary On
Versions: 1 2 3 4 5 6 7 8 9 10 11 12 13 14 15 16 17 18 19 20 21 22 23 24 25 26 27 28 29 30 31 32 33 34 35 36 37 38 39 40 41 42 43 44 45 46 47 48 49 50
000
ASUS46 KSTO 290009
RWRCA

NORTHERN AND CENTRAL CA REGIONAL WEATHER ROUNDUP
NATIONAL WEATHER SERVICE SACRAMENTO CA
500 PM PDT SUN AUG 28 2016

NOTE: FAIR INDICATES FEW OR NO CLOUDS BELOW 12,000 FEET WITH NO
SIGNIFICANT WEATHER AND/OR OBSTRUCTIONS TO VISIBILITY.

CAZ001-003-290100-
NORTHWEST AREA

CITY           SKY/WX    TMP DP  RH WIND       PRES   REMARKS
CRESCENT CITY  SUNNY     58  51  78 SW6       30.11S
ARCATA         NOT AVBL
SHELTER COVE   NOT AVBL
UKIAH          SUNNY     88  45  22 SE10      29.98F
$$

CAZ006-505>513-290100-
BAY AREA

CITY           SKY/WX    TMP DP  RH WIND       PRES   REMARKS
SANTA ROSA     SUNNY     75  53  46 SE10      30.02S
SAN RAFAEL     N/A       MM  MM  MM MISG
NAPA           SUNNY     76  56  49 S16       30.01F
CONCORD        SUNNY     83  43  24 W14       30.00S
OAKLAND CITY   N/A       MM  MM  MM MISG
OAKLAND        MOSUNNY   70  55  59 W16       30.05F
SAN FRAN CITY  N/A       65  MM  65 MISG
SAN FRAN ARPT  MOSUNNY   69  52  54 W20       30.05F
LIVERMORE      SUNNY     82  53  36 W13       30.00F
HAYWARD        SUNNY     70  51  51 NW15      30.04F
REDWOOD CITY   N/A       MM  MM  MM MISG
MOFFETT ARPT   SUNNY     71  55  56 N14       30.04F
SAN JOSE ARPT  SUNNY     74  55  51 NW14      30.03S
$$
CAZ034-037-514>518-290100-
CENTRAL COAST

CITY           SKY/WX    TMP DP  RH WIND       PRES   REMARKS
WATSONVILLE    SUNNY     67  56  67 SW12      30.06F
SALINAS        SUNNY     68  53  58 W14       30.06S
MONTEREY       SUNNY     65  54  67 W10       30.08S
PT PIEDRAS BLS NOT AVBL
SAN LUIS OBISP SUNNY     73  55  53 NW17      30.00F
SANTA MARIA    SUNNY     67  55  65 NW17      30.03S
$$
CAZ015-016-290100-
NORTHERN SACRAMENTO VALLEY

CITY           SKY/WX    TMP DP  RH WIND       PRES   REMARKS
REDDING        SUNNY     94  39  14 S9        29.95F HX  90
RED BLUFF      SUNNY     93  40  15 S12G20    29.96F
OROVILLE       SUNNY     89  53  29 S3        29.98F
$$
CAZ016>018-290100-
SOUTHERN SACRAMENTO VALLEY

CITY           SKY/WX    TMP DP  RH WIND       PRES   REMARKS
AUBURN         SUNNY     88  46  23 W5        30.06F
BEALE AFB      SUNNY     90  50  25 CALM      29.95F
LINCOLN        FAIR      88  46  23 CALM      29.97F
MARYSVILLE     SUNNY     91  41  17 S6        29.97F
SAC INTL ARPT  SUNNY     88  50  27 VRB3      29.96F
MATHER AIRPORT SUNNY     90  50  25 NW5       29.97F
DOWNTOWN SAC   N/A       92  MM  MM MISG
SAC EXEC ARPT  SUNNY     88  53  30 SW8       29.97F
VACAVILLE      SUNNY     90  40  17 S10G17    29.98F
TRAVIS AFB     SUNNY     85  48  27 W13       29.96F
$$
CAZ019>021-290100-
SAN JOAQUIN VALLEY

CITY           SKY/WX    TMP DP  RH WIND       PRES   REMARKS
STOCKTON       SUNNY     89  51  27 N7        29.97F
MODESTO        SUNNY     89  53  29 N10       29.96F
MERCED         SUNNY     90  56  31 NW8       29.96S
LEMOORE        SUNNY     93  54  26 N9        29.95F HX  91
FRESNO         SUNNY     92  51  24 W8        29.96F
HANFORD        SUNNY     93  53  25 NW7       29.95F HX  90
PORTERVILLE    SUNNY     92  58  31 NW9       29.95F HX  91
BAKERSFIELD    SUNNY     93  52  24 NW10      29.94F HX  90
$$
CAZ011-012-071-290100-
NORTHERN MOUNTAINS

CITY           SKY/WX    TMP DP  RH WIND       PRES   REMARKS
YREKA          SUNNY     92  30  11 S14       30.01F
MOUNT SHASTA   SUNNY     83  31  15 VRB3      30.12S
ALTURAS        SUNNY     87  28  12 W9        30.12F
$$
CAZ011-012-071-290100-
SIERRA NEVADA MTNS

CITY           SKY/WX    TMP DP  RH WIND       PRES   REMARKS
BLUE CANYON    SUNNY     75  35  23 VRB5      30.28F
TRUCKEE        NOT AVBL
TAHOE VLY ARPT SUNNY     77  31  18 VRB5      30.29R
MAMMOTH LAKES  FAIR      81  28  14 W15       30.32F
$$




USA.gov is the U.S. government's official web portal to all federal, state and local government web resources and services.